| time (UTC) | temp F | wind direction | speed knots | gust knots | rain 1hr in | rain 24hr in | rain mn in | humidity % | barometer mb |
| 20260502163511 | 78 | 268 | 0.9 | 6.1 | 0.00 | 0.00 | 0.00 | 25 | 1018.1 |
| 20260502163044 | 78 | 229 | 2.6 | 6.1 | 0.00 | 0.00 | 0.00 | 26 | 1018.2 |
| 20260502162548 | 79 | 196 | 1.7 | 5.2 | 0.00 | 0.00 | 0.00 | 24 | 1018.3 |
| 20260502162001 | 79 | 190 | 1.7 | 5.2 | 0.00 | 0.00 | 0.00 | 25 | 1018.3 |
| 20260502161530 | 79 | 274 | 2.6 | 7.0 | 0.00 | 0.00 | 0.00 | 25 | 1018.3 |
| 20260502161049 | 79 | 205 | 2.6 | 7.8 | 0.00 | 0.00 | 0.00 | 24 | 1018.4 |
| 20260502160518 | 79 | 262 | 2.6 | 7.8 | 0.00 | 0.00 | 0.00 | 25 | 1018.5 |
| 20260502152030 | 80 | 136 | 3.5 | 7.8 | 0.00 | 0.00 | 0.00 | 25 | 1019.2 |
| 20260502151550 | 80 | 240 | 3.5 | 7.8 | 0.00 | 0.00 | 0.00 | 24 | 1019.2 |
| 20260502151058 | 80 | 277 | 0.9 | 4.3 | 0.00 | 0.00 | 0.00 | 24 | 1019.3 |
| 20260502150516 | 80 | 213 | 1.7 | 8.7 | 0.00 | 0.00 | 0.00 | 23 | 1019.4 |
| 20260502130529 | 78 | 181 | 3.5 | 8.7 | 0.00 | 0.00 | 0.00 | 23 | 1021.0 |
| 20260502123528 | 78 | 197 | 4.3 | 9.6 | 0.00 | 0.00 | 0.00 | 25 | 1021.3 |
| 20260502123057 | 78 | 266 | 2.6 | 9.6 | 0.00 | 0.00 | 0.00 | 25 | 1021.3 |
| 20260502122504 | 77 | 257 | 4.3 | 8.7 | 0.00 | 0.00 | 0.00 | 25 | 1021.4 |
| 20260502122034 | 77 | 226 | 1.7 | 7.0 | 0.00 | 0.00 | 0.00 | 24 | 1021.5 |
| 20260502121558 | 77 | 181 | 1.7 | 10.4 | 0.00 | 0.00 | 0.00 | 24 | 1021.5 |
| 20260502121010 | 78 | 102 | 5.2 | 10.4 | 0.00 | 0.00 | 0.00 | 24 | 1021.6 |
| 20260502120529 | 78 | 188 | 2.6 | 6.1 | 0.00 | 0.00 | 0.00 | 25 | 1021.5 |
| 20260502115505 | 77 | 334 | 1.7 | 7.0 | 0.00 | 0.00 | 0.00 | 26 | 1021.7 |
| 20260502115038 | 77 | 250 | 1.7 | 7.8 | 0.00 | 0.00 | 0.00 | 25 | 1021.8 |
| 20260502114555 | 77 | 107 | 3.5 | 7.8 | 0.00 | 0.00 | 0.00 | 25 | 1021.8 |
| 20260502114020 | 76 | 164 | 0.0 | 9.6 | 0.00 | 0.00 | 0.00 | 25 | 1021.9 |
| 20260502113542 | 77 | 209 | 4.3 | 10.4 | 0.00 | 0.00 | 0.00 | 26 | 1022.1 |
| 20260502113005 | 77 | 147 | 5.2 | 10.4 | 0.00 | 0.00 | 0.00 | 26 | 1022.1 |
| 20260502112525 | 77 | 157 | 1.7 | 9.6 | 0.00 | 0.00 | 0.00 | 27 | 1022.2 |
| 20260502112043 | 77 | 107 | 1.7 | 7.0 | 0.00 | 0.00 | 0.00 | 26 | 1022.2 |
| 20260502111508 | 77 | 133 | 2.6 | 7.0 | 0.00 | 0.00 | 0.00 | 25 | 1022.4 |
| 20260502111028 | 77 | 269 | 3.5 | 7.8 | 0.00 | 0.00 | 0.00 | 25 | 1022.4 |
| 20260502110545 | 76 | 198 | 3.5 | 8.7 | 0.00 | 0.00 | 0.00 | 26 | 1022.5 |
| 20260502110106 | 76 | 252 | 3.5 | 10.4 | 0.00 | 0.00 | 0.00 | 27 | 1022.5 |
| 20260502105529 | 77 | 232 | 3.5 | 10.4 | 0.00 | 0.00 | 0.00 | 25 | 1022.7 |
| 20260502105049 | 77 | 134 | 3.5 | 7.8 | 0.00 | 0.00 | 0.00 | 26 | 1022.7 |
| 20260502104515 | 76 | 231 | 3.5 | 7.8 | 0.00 | 0.00 | 0.00 | 26 | 1022.7 |
| 20260502104033 | 76 | 172 | 3.5 | 9.6 | 0.00 | 0.00 | 0.00 | 26 | 1022.8 |
| 20260502103552 | 76 | 298 | 1.7 | 9.6 | 0.00 | 0.00 | 0.00 | 27 | 1022.8 |
| 20260502103010 | 76 | 168 | 2.6 | 7.8 | 0.00 | 0.00 | 0.00 | 27 | 1022.9 |
| 20260502102529 | 75 | 253 | 4.3 | 8.7 | 0.00 | 0.00 | 0.00 | 26 | 1023.0 |
| 20260502102049 | 75 | 234 | 0.9 | 7.8 | 0.00 | 0.00 | 0.00 | 26 | 1023.1 |
| 20260502101505 | 76 | 113 | 2.6 | 7.8 | 0.00 | 0.00 | 0.00 | 27 | 1023.2 |
| 20260502101036 | 76 | 129 | 0.9 | 7.0 | 0.00 | 0.00 | 0.00 | 27 | 1023.1 |
| 20260502100555 | 76 | 186 | 2.6 | 7.0 | 0.00 | 0.00 | 0.00 | 27 | 1023.3 |
| 20260502091531 | 73 | 165 | 0.0 | 7.8 | 0.00 | 0.00 | 0.00 | 30 | 1024.0 |
| 20260502091050 | 73 | 134 | 0.9 | 4.3 | 0.00 | 0.00 | 0.00 | 27 | 1024.1 |
| 20260502090515 | 73 | 115 | 1.7 | 8.7 | 0.00 | 0.00 | 0.00 | 28 | 1024.0 |
| 20260502071102 | 68 | 190 | 2.6 | 5.2 | 0.00 | 0.00 | 0.00 | 37 | 1024.5 |
| 20260502070522 | 68 | 190 | 1.7 | 6.1 | 0.00 | 0.00 | 0.00 | 38 | 1024.6 |
| 20260502070047 | 68 | 154 | 0.9 | 7.0 | 0.00 | 0.00 | 0.00 | 37 | 1024.5 |
| 20260502065554 | 67 | 190 | 1.7 | 7.0 | 0.00 | 0.00 | 0.00 | 39 | 1024.5 |
| 20260502065011 | 67 | 290 | 0.0 | 5.2 | 0.00 | 0.00 | 0.00 | 39 | 1024.6 |
| 20260502064539 | 67 | 172 | 0.9 | 6.1 | 0.00 | 0.00 | 0.00 | 39 | 1024.6 |
| 20260502064050 | 67 | 139 | 1.7 | 5.2 | 0.00 | 0.00 | 0.00 | 40 | 1024.7 |
| 20260502063518 | 67 | 136 | 0.0 | 1.7 | 0.00 | 0.00 | 0.00 | 46 | 1024.6 |
| 20260502063040 | 66 | 113 | 0.0 | 0.0 | 0.00 | 0.00 | 0.00 | 49 | 1024.7 |
| 20260502062556 | 65 | 113 | 0.0 | 0.0 | 0.00 | 0.00 | 0.00 | 50 | 1024.8 |
| 20260502062015 | 64 | 113 | 0.0 | 0.0 | 0.00 | 0.00 | 0.00 | 51 | 1024.9 |
| 20260502061530 | 63 | 113 | 0.0 | 0.0 | 0.00 | 0.00 | 0.00 | 52 | 1025.0 |
| 20260502061048 | 62 | 113 | 0.0 | 0.0 | 0.00 | 0.00 | 0.00 | 54 | 1024.9 |
| 20260502060512 | 61 | 113 | 0.0 | 0.0 | 0.00 | 0.00 | 0.00 | 55 | 1024.9 |
| 20260502060032 | 60 | 113 | 0.0 | 0.0 | 0.00 | 0.00 | 0.00 | 55 | 1024.9 |
| 20260502055556 | 60 | 113 | 0.0 | 0.0 | 0.00 | 0.00 | 0.00 | 56 | 1024.8 |
| 20260502055009 | 58 | 113 | 0.0 | 0.0 | 0.00 | 0.00 | 0.00 | 60 | 1024.8 |
| 20260502054538 | 57 | 113 | 0.0 | 0.0 | 0.00 | 0.00 | 0.00 | 61 | 1024.8 |
| 20260502054055 | 56 | 113 | 0.0 | 0.0 | 0.00 | 0.00 | 0.00 | 62 | 1024.9 |
| 20260502053512 | 55 | 113 | 0.0 | 0.0 | 0.00 | 0.00 | 0.00 | 65 | 1024.9 |
| 20260502053032 | 53 | 113 | 0.0 | 0.0 | 0.00 | 0.00 | 0.00 | 66 | 1024.7 |
| 20260502052555 | 52 | 113 | 0.0 | 0.0 | 0.00 | 0.00 | 0.00 | 69 | 1024.7 |
| 20260502052018 | 50 | 113 | 0.0 | 0.0 | 0.00 | 0.00 | 0.00 | 71 | 1024.7 |
| 20260502051537 | 48 | 113 | 0.0 | 0.0 | 0.00 | 0.00 | 0.00 | 73 | 1024.7 |
| 20260502051054 | 47 | 113 | 0.0 | 0.0 | 0.00 | 0.00 | 0.00 | 75 | 1024.7 |
| 20260502050514 | 46 | 113 | 0.0 | 0.0 | 0.00 | 0.00 | 0.00 | 74 | 1024.6 |
| 20260502050036 | 45 | 113 | 0.0 | 0.0 | 0.00 | 0.00 | 0.00 | 75 | 1024.7 |
| 20260502045552 | 45 | 113 | 0.0 | 0.0 | 0.00 | 0.00 | 0.00 | 76 | 1024.7 |
| 20260502045007 | 44 | 113 | 0.0 | 0.0 | 0.00 | 0.00 | 0.00 | 76 | 1024.6 |
| 20260502044526 | 44 | 113 | 0.0 | 0.0 | 0.00 | 0.00 | 0.00 | 76 | 1024.6 |
| 20260502044046 | 43 | 113 | 0.0 | 0.9 | 0.00 | 0.00 | 0.00 | 76 | 1024.6 |
| 20260502043505 | 43 | 113 | 0.0 | 0.9 | 0.00 | 0.00 | 0.00 | 76 | 1024.7 |
| 20260502043036 | 43 | 113 | 0.0 | 0.0 | 0.00 | 0.00 | 0.00 | 76 | 1024.6 |
| 20260502042553 | 43 | 113 | 0.0 | 0.0 | 0.00 | 0.00 | 0.00 | 77 | 1024.6 |
| 20260502042021 | 42 | 113 | 0.0 | 0.0 | 0.00 | 0.00 | 0.00 | 77 | 1024.6 |
| 20260502041545 | 42 | 113 | 0.0 | 2.6 | 0.00 | 0.00 | 0.00 | 77 | 1024.5 |
| 20260502041006 | 42 | 113 | 0.0 | 2.6 | 0.00 | 0.00 | 0.00 | 76 | 1024.5 |
| 20260502040524 | 42 | 111 | 0.0 | 0.0 | 0.00 | 0.00 | 0.00 | 76 | 1024.5 |
| 20260502040035 | 42 | 111 | 0.0 | 0.0 | 0.00 | 0.00 | 0.00 | 76 | 1024.6 |
| 20260502035555 | 42 | 111 | 0.0 | 0.0 | 0.00 | 0.00 | 0.00 | 76 | 1024.6 |
| 20260502035020 | 42 | 111 | 0.0 | 0.0 | 0.00 | 0.00 | 0.00 | 76 | 1024.5 |
| 20260502034540 | 42 | 111 | 0.0 | 0.0 | 0.00 | 0.00 | 0.00 | 76 | 1024.6 |
| 20260502034100 | 42 | 111 | 0.0 | 0.0 | 0.00 | 0.00 | 0.00 | 76 | 1024.6 |
| 20260502033518 | 42 | 111 | 0.0 | 0.0 | 0.00 | 0.00 | 0.00 | 76 | 1024.7 |
| 20260502033039 | 42 | 111 | 0.0 | 0.0 | 0.00 | 0.00 | 0.00 | 76 | 1024.6 |
| 20260502032555 | 43 | 111 | 0.0 | 0.0 | 0.00 | 0.00 | 0.00 | 76 | 1024.7 |
| 20260502032019 | 43 | 111 | 0.0 | 0.0 | 0.00 | 0.00 | 0.00 | 75 | 1024.7 |
| 20260502031539 | 43 | 111 | 0.0 | 0.0 | 0.00 | 0.00 | 0.00 | 75 | 1024.7 |
| 20260502031058 | 43 | 111 | 0.0 | 0.0 | 0.00 | 0.00 | 0.00 | 75 | 1024.7 |
| 20260502030512 | 43 | 111 | 0.0 | 0.0 | 0.00 | 0.00 | 0.00 | 75 | 1024.8 |
| 20260502030041 | 43 | 111 | 0.0 | 0.0 | 0.00 | 0.00 | 0.00 | 75 | 1024.8 |
| 20260502025600 | 43 | 111 | 0.0 | 0.0 | 0.00 | 0.00 | 0.00 | 74 | 1024.8 |
| 20260502025024 | 44 | 111 | 0.0 | 0.0 | 0.00 | 0.00 | 0.00 | 74 | 1024.8 |
| 20260502024544 | 44 | 111 | 0.0 | 0.0 | 0.00 | 0.00 | 0.00 | 74 | 1024.9 |
| 20260502024011 | 44 | 111 | 0.0 | 0.0 | 0.00 | 0.00 | 0.00 | 74 | 1024.9 |
| 20260502023532 | 44 | 111 | 0.0 | 0.0 | 0.00 | 0.00 | 0.00 | 74 | 1024.9 |
| 20260502023047 | 44 | 111 | 0.0 | 0.0 | 0.00 | 0.00 | 0.00 | 74 | 1024.9 |
| 20260502022503 | 44 | 111 | 0.0 | 0.0 | 0.00 | 0.00 | 0.00 | 74 | 1024.9 |
| 20260502022037 | 44 | 111 | 0.0 | 0.0 | 0.00 | 0.00 | 0.00 | 74 | 1024.9 |
| 20260502021553 | 44 | 111 | 0.0 | 0.0 | 0.00 | 0.00 | 0.00 | 74 | 1024.9 |
| 20260502021019 | 44 | 111 | 0.0 | 0.0 | 0.00 | 0.00 | 0.00 | 74 | 1025.0 |
| 20260502020539 | 44 | 111 | 0.0 | 0.0 | 0.00 | 0.00 | 0.00 | 74 | 1024.9 |
| 20260502020058 | 45 | 111 | 0.0 | 0.0 | 0.00 | 0.00 | 0.00 | 73 | 1025.0 |
| 20260502015514 | 45 | 111 | 0.0 | 0.0 | 0.00 | 0.00 | 0.00 | 73 | 1025.0 |
| 20260502015031 | 45 | 111 | 0.0 | 0.0 | 0.00 | 0.00 | 0.00 | 73 | 1025.0 |
| 20260502014556 | 45 | 111 | 0.0 | 0.0 | 0.00 | 0.00 | 0.00 | 72 | 1025.1 |
| 20260502014008 | 45 | 107 | 0.0 | 0.0 | 0.00 | 0.00 | 0.00 | 72 | 1025.1 |
| 20260502013526 | 45 | 107 | 0.0 | 0.0 | 0.00 | 0.00 | 0.00 | 72 | 1025.0 |
| 20260502013048 | 45 | 107 | 0.0 | 0.0 | 0.00 | 0.00 | 0.00 | 71 | 1025.1 |
| 20260502012502 | 46 | 226 | 0.0 | 0.0 | 0.00 | 0.00 | 0.00 | 71 | 1025.1 |
| 20260502012027 | 46 | 226 | 0.0 | 0.0 | 0.00 | 0.00 | 0.00 | 71 | 1025.1 |
| 20260502011550 | 46 | 226 | 0.0 | 0.0 | 0.00 | 0.00 | 0.00 | 70 | 1025.1 |
| 20260502011003 | 46 | 226 | 0.0 | 0.0 | 0.00 | 0.00 | 0.00 | 69 | 1025.1 |
| 20260502010523 | 46 | 226 | 0.0 | 0.0 | 0.00 | 0.00 | 0.00 | 69 | 1025.2 |
| 20260502010043 | 46 | 226 | 0.0 | 0.0 | 0.00 | 0.00 | 0.00 | 68 | 1025.2 |
| 20260502005603 | 47 | 226 | 0.0 | 0.0 | 0.00 | 0.00 | 0.00 | 68 | 1025.2 |
| 20260502005018 | 47 | 226 | 0.0 | 2.6 | 0.00 | 0.00 | 0.00 | 68 | 1025.2 |
| 20260502004539 | 47 | 226 | 0.0 | 2.6 | 0.00 | 0.00 | 0.00 | 68 | 1025.2 |
| 20260502004059 | 47 | 226 | 0.0 | 1.7 | 0.00 | 0.00 | 0.00 | 68 | 1025.2 |
| 20260502003522 | 47 | 226 | 0.0 | 0.0 | 0.00 | 0.00 | 0.00 | 68 | 1025.1 |
| 20260502003042 | 47 | 226 | 0.0 | 0.0 | 0.00 | 0.00 | 0.00 | 68 | 1025.2 |
| 20260502002603 | 47 | 226 | 0.0 | 0.0 | 0.00 | 0.00 | 0.00 | 68 | 1025.2 |
| 20260502002017 | 47 | 226 | 0.0 | 0.0 | 0.00 | 0.00 | 0.00 | 68 | 1025.2 |
| 20260502001537 | 47 | 226 | 0.0 | 0.0 | 0.00 | 0.00 | 0.00 | 68 | 1025.3 |
| 20260502001059 | 47 | 226 | 0.0 | 0.0 | 0.00 | 0.00 | 0.00 | 68 | 1025.3 |
| 20260502000521 | 48 | 226 | 0.0 | 1.7 | 0.00 | 0.00 | 0.00 | 68 | 1025.3 |
| 20260502000052 | 48 | 226 | 0.0 | 1.7 | 0.00 | 0.00 | 0.00 | 68 | 1025.3 |
| 20260501235506 | 48 | 226 | 0.9 | 1.7 | 0.00 | 0.00 | 0.00 | 68 | 1025.4 |
| 20260501235026 | 48 | 226 | 0.0 | 0.0 | 0.00 | 0.00 | 0.00 | 68 | 1025.4 |
| 20260501234549 | 48 | 226 | 0.0 | 0.0 | 0.00 | 0.00 | 0.00 | 68 | 1025.4 |
| 20260501234002 | 48 | 226 | 0.0 | 0.0 | 0.00 | 0.00 | 0.00 | 67 | 1025.5 |
| 20260501233522 | 48 | 226 | 0.0 | 0.0 | 0.00 | 0.00 | 0.00 | 68 | 1025.5 |
| 20260501233036 | 48 | 226 | 0.0 | 0.0 | 0.00 | 0.00 | 0.00 | 68 | 1025.5 |
| 20260501232550 | 48 | 225 | 0.0 | 0.0 | 0.00 | 0.00 | 0.00 | 67 | 1025.5 |
| 20260501232008 | 48 | 278 | 0.0 | 0.0 | 0.00 | 0.00 | 0.00 | 67 | 1025.6 |
| 20260501231531 | 49 | 278 | 0.0 | 0.0 | 0.00 | 0.00 | 0.00 | 67 | 1025.6 |
| 20260501231051 | 49 | 292 | 0.0 | 0.0 | 0.00 | 0.00 | 0.00 | 67 | 1025.7 |
| 20260501230520 | 49 | 294 | 0.0 | 0.0 | 0.00 | 0.00 | 0.00 | 66 | 1025.7 |
| 20260501230034 | 49 | 344 | 0.0 | 0.0 | 0.00 | 0.00 | 0.00 | 66 | 1025.7 |
| 20260501225548 | 49 | 344 | 0.0 | 0.0 | 0.00 | 0.00 | 0.00 | 66 | 1025.7 |
| 20260501225004 | 49 | 346 | 0.0 | 0.0 | 0.00 | 0.00 | 0.00 | 65 | 1025.7 |
| 20260501224534 | 50 | 346 | 0.0 | 0.0 | 0.00 | 0.00 | 0.00 | 65 | 1025.7 |
| 20260501224054 | 50 | 256 | 0.0 | 0.0 | 0.00 | 0.00 | 0.00 | 63 | 1025.6 |
| 20260501223510 | 50 | 256 | 0.0 | 0.0 | 0.00 | 0.00 | 0.00 | 64 | 1025.7 |
| 20260501223029 | 50 | 256 | 0.0 | 0.0 | 0.00 | 0.00 | 0.00 | 63 | 1025.7 |
| 20260501222548 | 50 | 256 | 0.0 | 0.0 | 0.00 | 0.00 | 0.00 | 63 | 1025.7 |
| 20260501222012 | 50 | 256 | 0.0 | 0.0 | 0.00 | 0.00 | 0.00 | 63 | 1025.7 |
| 20260501221532 | 50 | 256 | 0.0 | 0.0 | 0.00 | 0.00 | 0.00 | 62 | 1025.7 |
| 20260501221051 | 50 | 256 | 0.0 | 0.0 | 0.00 | 0.00 | 0.00 | 62 | 1025.8 |
| 20260501220509 | 51 | 256 | 0.0 | 0.0 | 0.00 | 0.00 | 0.00 | 62 | 1025.8 |
| 20260501220029 | 51 | 256 | 0.0 | 0.0 | 0.00 | 0.00 | 0.00 | 61 | 1025.8 |
| 20260501215548 | 51 | 256 | 0.0 | 0.0 | 0.00 | 0.00 | 0.00 | 61 | 1025.8 |
| 20260501215015 | 51 | 256 | 0.0 | 0.0 | 0.00 | 0.00 | 0.00 | 61 | 1025.8 |
| 20260501214538 | 51 | 256 | 0.0 | 0.0 | 0.00 | 0.00 | 0.00 | 61 | 1025.9 |
| 20260501214052 | 51 | 256 | 0.0 | 0.0 | 0.00 | 0.00 | 0.00 | 60 | 1025.9 |
| 20260501213512 | 52 | 256 | 0.0 | 0.0 | 0.00 | 0.00 | 0.00 | 59 | 1025.9 |
| 20260501213029 | 52 | 256 | 0.0 | 0.0 | 0.00 | 0.00 | 0.00 | 59 | 1026.0 |
| 20260501212549 | 52 | 256 | 0.0 | 0.0 | 0.00 | 0.00 | 0.00 | 58 | 1025.9 |
| 20260501212006 | 52 | 256 | 0.0 | 0.0 | 0.00 | 0.00 | 0.00 | 58 | 1025.8 |
| 20260501211526 | 52 | 256 | 0.0 | 0.0 | 0.00 | 0.00 | 0.00 | 57 | 1025.9 |
| 20260501211044 | 53 | 256 | 0.0 | 0.0 | 0.00 | 0.00 | 0.00 | 56 | 1025.9 |
| 20260501210512 | 53 | 256 | 0.0 | 0.0 | 0.00 | 0.00 | 0.00 | 56 | 1025.8 |
| 20260501210032 | 53 | 256 | 0.0 | 0.0 | 0.00 | 0.00 | 0.00 | 55 | 1025.8 |
| 20260501205552 | 53 | 256 | 0.0 | 0.0 | 0.00 | 0.00 | 0.00 | 55 | 1025.7 |
| 20260501205009 | 54 | 256 | 0.0 | 0.0 | 0.00 | 0.00 | 0.00 | 54 | 1025.8 |
| 20260501204536 | 54 | 256 | 0.0 | 0.0 | 0.00 | 0.00 | 0.00 | 54 | 1025.8 |
| 20260501204055 | 54 | 256 | 0.0 | 0.0 | 0.00 | 0.00 | 0.00 | 53 | 1025.7 |
| 20260501203525 | 54 | 256 | 0.0 | 0.0 | 0.00 | 0.00 | 0.00 | 53 | 1025.9 |
| 20260501203037 | 55 | 256 | 0.0 | 0.0 | 0.00 | 0.00 | 0.00 | 52 | 1025.9 |
| 20260501202559 | 55 | 256 | 0.0 | 0.0 | 0.00 | 0.00 | 0.00 | 52 | 1025.9 |
| 20260501202022 | 55 | 256 | 0.0 | 0.0 | 0.00 | 0.00 | 0.00 | 52 | 1025.9 |
| 20260501201553 | 55 | 272 | 0.0 | 0.0 | 0.00 | 0.00 | 0.00 | 52 | 1025.9 |
| 20260501201100 | 55 | 272 | 0.0 | 1.7 | 0.00 | 0.00 | 0.00 | 51 | 1025.9 |
| 20260501200518 | 56 | 272 | 0.0 | 2.6 | 0.00 | 0.00 | 0.00 | 51 | 1025.9 |
| 20260501200037 | 56 | 272 | 0.9 | 2.6 | 0.00 | 0.00 | 0.00 | 51 | 1026.0 |
| 20260501195556 | 56 | 238 | 1.7 | 2.6 | 0.00 | 0.00 | 0.00 | 50 | 1026.0 |
| 20260501195023 | 57 | 238 | 0.0 | 0.0 | 0.00 | 0.00 | 0.00 | 50 | 1026.0 |
| 20260501194545 | 57 | 238 | 0.0 | 0.0 | 0.00 | 0.00 | 0.00 | 50 | 1026.1 |
| 20260501194104 | 57 | 238 | 0.0 | 0.0 | 0.00 | 0.00 | 0.00 | 50 | 1026.0 |
| 20260501193517 | 58 | 238 | 0.0 | 0.0 | 0.00 | 0.00 | 0.00 | 49 | 1026.1 |
| 20260501193038 | 58 | 238 | 0.0 | 0.0 | 0.00 | 0.00 | 0.00 | 49 | 1026.0 |
| 20260501192554 | 58 | 246 | 0.0 | 0.0 | 0.00 | 0.00 | 0.00 | 48 | 1026.1 |
| 20260501192012 | 59 | 246 | 0.0 | 0.0 | 0.00 | 0.00 | 0.00 | 48 | 1026.1 |
| 20260501191531 | 60 | 246 | 0.0 | 0.0 | 0.00 | 0.00 | 0.00 | 47 | 1026.1 |
| 20260501191051 | 60 | 246 | 0.0 | 1.7 | 0.00 | 0.00 | 0.00 | 46 | 1026.1 |
| 20260501190509 | 61 | 246 | 0.9 | 2.6 | 0.00 | 0.00 | 0.00 | 45 | 1025.9 |
| 20260501190027 | 61 | 263 | 0.9 | 1.7 | 0.00 | 0.00 | 0.00 | 45 | 1026.0 |
| 20260501185545 | 62 | 49 | 0.9 | 1.7 | 0.00 | 0.00 | 0.00 | 44 | 1025.9 |
| 20260501185011 | 63 | 49 | 0.0 | 0.0 | 0.00 | 0.00 | 0.00 | 42 | 1025.9 |
| 20260501184531 | 63 | 49 | 0.0 | 0.0 | 0.00 | 0.00 | 0.00 | 41 | 1025.9 |
| 20260501184051 | 64 | 49 | 0.0 | 0.0 | 0.00 | 0.00 | 0.00 | 40 | 1025.9 |
| 20260501183507 | 65 | 49 | 0.0 | 0.0 | 0.00 | 0.00 | 0.00 | 39 | 1025.8 |
| 20260501183036 | 66 | 49 | 0.0 | 0.0 | 0.00 | 0.00 | 0.00 | 38 | 1025.8 |
| 20260501182546 | 66 | 49 | 0.0 | 0.0 | 0.00 | 0.00 | 0.00 | 36 | 1025.8 |
| 20260501182014 | 67 | 49 | 0.0 | 0.0 | 0.00 | 0.00 | 0.00 | 33 | 1025.7 |
| 20260501181538 | 68 | 49 | 0.0 | 0.9 | 0.00 | 0.00 | 0.00 | 32 | 1025.7 |
| 20260501181038 | 68 | 49 | 0.0 | 1.7 | 0.00 | 0.00 | 0.00 | 32 | 1025.6 |
| 20260501180559 | 68 | 49 | 0.0 | 1.7 | 0.00 | 0.00 | 0.00 | 31 | 1025.6 |
| 20260501180025 | 69 | 46 | 0.0 | 2.6 | 0.00 | 0.00 | 0.00 | 30 | 1025.5 |
| 20260501175540 | 69 | 47 | 0.0 | 2.6 | 0.00 | 0.00 | 0.00 | 30 | 1025.5 |
| 20260501175059 | 69 | 44 | 0.9 | 3.5 | 0.00 | 0.00 | 0.00 | 30 | 1025.5 |
| 20260501174531 | 70 | 58 | 0.9 | 3.5 | 0.00 | 0.00 | 0.00 | 30 | 1025.5 |
| 20260501174041 | 70 | 40 | 0.9 | 4.3 | 0.00 | 0.00 | 0.00 | 29 | 1025.5 |
| 20260501173508 | 70 | 46 | 0.9 | 4.3 | 0.00 | 0.00 | 0.00 | 29 | 1025.4 |
| 20260501173027 | 71 | 30 | 1.7 | 4.3 | 0.00 | 0.00 | 0.00 | 29 | 1025.5 |
| 20260501172545 | 71 | 9 | 0.9 | 2.6 | 0.00 | 0.00 | 0.00 | 28 | 1025.5 |
| 20260501172103 | 71 | 63 | 0.0 | 2.6 | 0.00 | 0.00 | 0.00 | 29 | 1025.5 |
| 20260501171528 | 71 | 360 | 0.0 | 3.5 | 0.00 | 0.00 | 0.00 | 30 | 1025.5 |
| 20260501171046 | 71 | 324 | 0.9 | 5.2 | 0.00 | 0.00 | 0.00 | 30 | 1025.4 |
| 20260501170504 | 72 | 331 | 1.7 | 5.2 | 0.00 | 0.00 | 0.00 | 30 | 1025.5 |
| 20260501170022 | 72 | 350 | 2.6 | 5.2 | 0.00 | 0.00 | 0.00 | 29 | 1025.4 |
| 20260501165540 | 72 | 24 | 0.9 | 5.2 | 0.00 | 0.00 | 0.00 | 28 | 1025.5 |
| 20260501165100 | 72 | 14 | 1.7 | 5.2 | 0.00 | 0.00 | 0.00 | 28 | 1025.4 |
| 20260501164524 | 72 | 355 | 3.5 | 5.2 | 0.00 | 0.00 | 0.00 | 28 | 1025.4 |
| 20260501164046 | 72 | 317 | 0.9 | 3.5 | 0.00 | 0.00 | 0.00 | 28 | 1025.5 |